Location: Alafon
(8.4500°N, 4.2333°E)
Time: 16:56:05
(UTC+00:00)

A-11 Canister half - Pass Details

Date: 07 August 2021
Orbit: 1515 x 1685 km, 47.2° (Epoch: 19 September)

Event Time Altitude Azimuth Distance (km) Brightness Sun altitude
Rises 10:14:53 0° 184° (S) 4,649 11.4 65.8°
Reaches altitude 10° 10:19:37 10° 163° (SSE) 3,672 11.1 66.9°
Maximum altitude 10:24:41 16° 129° (SE) 3,242 11.1 68.0°
Drops below altitude 10° 10:29:47 10° 95° (E) 3,710 11.5 69.2°
Sets 10:34:31 0° 75° (ENE) 4,722 11.8 70.2°
